This demonstration page uses our WeatherBlox Daily Observations layout. Learn more.

40.92945, -100.16068

Hourly Observations for January 12, 2018

Temp ( °F °C ) Dew Point ( °F °C ) Humidity (%) Winds ( mph kmh ) Pressure ( in mb ) Visibility ( mi km ) Precip ( " mm )
12:15 am 00:15 Clear 4 -15.3 -1 -18.5 77 77 Calm 30.59 1036 10 16.0934 0 0
12:35 am 00:35 Clear 3 -16 -2 -19.1 77 77 NW 6 9 30.56 1035 10 16.0934 0 0
12:55 am 00:55 Clear 3 -16 -3 -19.3 76 76 NW 8 13 30.56 1035 10 16.0934 0 0
1:15 am 01:15 Partly Cloudy 3 -16.3 -3 -19.6 76 76 N 7 11 30.56 1035 10 16.0934 0 0
1:35 am 01:35 Partly Cloudy 2 -16.7 -4 -19.8 77 77 N 6 9 30.56 1035 10 16.0934 0 0
1:55 am 01:55 Clear 1 -17 -4 -19.9 78 78 NE 5 7 30.56 1035 10 16.0934 0 0
2:15 am 02:15 Mostly Cloudy 2 -16.9 -4 -19.8 78 78 N 5 7 30.56 1035 10 16.0934 0 0
2:35 am 02:35 Cloudy 3 -15.9 -2 -18.9 78 78 N 5 7 30.53 1034 10 16.0934 0 0
2:55 am 02:55 Cloudy 5 -15.1 -1 -18.4 76 76 NNE 5 7 30.53 1034 10 16.0934 0 0
3:15 am 03:15 Cloudy 6 -14.5 -1 -18.1 74 74 N 5 7 30.53 1034 10 16.0934 0 0
3:35 am 03:35 Cloudy 6 -14.3 -1 -18.1 73 73 N 8 13 30.53 1034 10 16.0934 0 0
3:55 am 03:55 Cloudy 6 -14.3 0 -18 74 74 N 7 11 30.53 1034 10 16.0934 0 0
4:15 am 04:15 Cloudy 6 -14.5 -1 -18.5 72 72 NNE 8 13 30.53 1034 10 16.0934 0 0
4:35 am 04:35 Cloudy 6 -14.5 -1 -18.3 73 73 NNE 6 9 30.5 1033 10 16.0934 0 0
4:55 am 04:55 Cloudy 6 -14.5 -1 -18.3 73 73 NE 8 13 30.5 1033 10 16.0934 0 0
5:15 am 05:15 Cloudy 6 -14.5 -1 -18.2 74 74 NE 7 11 30.5 1033 10 16.0934 0 0
5:35 am 05:35 Cloudy 6 -14.5 -1 -18.6 71 71 NNE 6 9 30.5 1033 10 16.0934 0 0
5:55 am 05:55 Cloudy 6 -14.7 -2 -18.7 72 72 NE 3 6 30.5 1033 10 16.0934 0 0
6:15 am 06:15 Cloudy 6 -14.7 -2 -18.7 72 72 Calm 30.5 1033 10 16.0934 0 0
6:35 am 06:35 Cloudy 6 -14.6 -2 -18.7 71 71 Calm 30.5 1033 10 16.0934 0 0
6:55 am 06:55 Cloudy 6 -14.5 -1 -18.3 73 73 ENE 3 6 30.5 1033 10 16.0934 0 0
7:15 am 07:15 Cloudy 6 -14.5 -1 -18.6 71 71 E 5 7 30.5 1033 10 16.0934 0 0
7:35 am 07:35 Cloudy 6 -14.5 -2 -18.7 71 71 ENE 7 11 30.53 1034 10 16.0934 0 0
7:55 am 07:55 Cloudy 6 -14.5 -2 -18.8 70 70 ENE 7 11 30.53 1034 10 16.0934 0 0
8:15 am 08:15 Cloudy 6 -14.5 -2 -19 69 69 E 10 17 30.53 1034 10 16.0934 0 0
8:35 am 08:35 Cloudy 6 -14.5 -2 -19 69 69 E 8 13 30.53 1034 10 16.0934 0 0
8:55 am 08:55 Cloudy 6 -14.2 -2 -19 67 67 E 8 13 30.53 1034 10 16.0934 0 0
9:15 am 09:15 Cloudy 7 -14.1 -2 -18.8 68 68 ESE 7 11 30.56 1035 10 16.0934 0 0
9:35 am 09:35 Cloudy 7 -13.8 -2 -18.9 66 66 SE 6 9 30.56 1035 10 16.0934 0 0
9:55 am 09:55 Cloudy 8 -13.6 -2 -18.7 66 66 SE 8 13 30.53 1034 10 16.0934 0 0
10:15 am 10:15 Cloudy 8 -13.1 -1 -18.5 64 64 ESE 10 17 30.53 1034 10 16.0934 0 0
10:35 am 10:35 Cloudy 9 -13 -1 -18.4 64 64 ESE 8 13 30.53 1034 10 16.0934 0 0
10:55 am 10:55 Cloudy 9 -12.7 -1 -18.6 62 62 ESE 10 17 30.53 1034 10 16.0934 0 0
11:15 am 11:15 Cloudy 10 -12.5 -1 -18.4 62 62 ESE 9 15 30.53 1034 10 16.0934 0 0
11:35 am 11:35 Cloudy 10 -12.4 -1 -18.3 62 62 E 10 17 30.53 1034 10 16.0934 0 0
11:55 am 11:55 Cloudy 10 -12 0 -17.9 62 62 ESE 13 20 30.53 1034 10 16.0934 0 0
12:15 pm 12:15 Cloudy 11 -11.6 1 -17.4 62 62 E 10 17 30.53 1034 10 16.0934 0 0
12:35 pm 12:35 Cloudy 11 -11.7 0 -17.9 60 60 E 10 17 30.53 1034 10 16.0934 0 0
12:55 pm 12:55 Cloudy 12 -11.2 0 -17.8 59 59 ESE 10 17 30.53 1034 10 16.0934 0 0
1:15 pm 13:15 Cloudy 12 -11.2 0 -17.7 59 59 E 10 17 30.53 1034 10 16.0934 0 0
1:35 pm 13:35 Cloudy 12 -11.3 1 -17.1 63 63 E 7 11 30.53 1034 10 16.0934 0 0
1:55 pm 13:55 Cloudy 12 -11.3 2 -16.9 64 64 E 8 13 30.53 1034 10 16.0934 0 0
2:15 pm 14:15 Cloudy 12 -11 3 -16.2 66 66 ENE 9 15 30.56 1035 10 16.0934 0 0
2:35 pm 14:35 Cloudy 12 -11.1 3 -16.3 66 66 NE 9 15 30.56 1035 10 16.0934 0 0
2:55 pm 14:55 Cloudy 11 -11.5 2 -16.5 67 67 NNE 9 15 30.59 1036 10 16.0934 0 0
3:15 pm 15:15 Cloudy 11 -11.5 2 -16.4 67 67 NE 10 17 30.59 1036 10 16.0934 0 0
3:35 pm 15:35 Cloudy with Light Snow 11 -11.7 3 -16.3 69 69 NE 12 19 30.59 1036 10 16.0934 0 0
3:55 pm 15:55 Cloudy 11 -11.7 3 -16 71 71 NE 12 19 30.62 1037 10 16.0934 0 0
4:15 pm 16:15 Cloudy 11 -11.9 3 -16.1 71 71 NE 10 17 30.62 1037 10 16.0934 0 0
4:35 pm 16:35 Cloudy with Light Snow 10 -12 3 -16.2 71 71 NE 9 15 30.62 1037 10 16.0934 0 0
4:55 pm 16:55 Cloudy with Light Snow 10 -12.2 3 -16 74 74 NE 12 19 30.65 1038 7 11.26538 0 0
5:15 pm 17:15 Cloudy with Light Snow 10 -12.5 3 -15.9 76 76 NE 10 17 30.65 1038 5 8.0467 0 0
5:35 pm 17:35 Cloudy 9 -12.6 3 -16 76 76 NE 10 17 30.65 1038 10 16.0934 0 0
5:55 pm 17:55 Cloudy 9 -12.6 3 -16.3 74 74 NE 8 13 30.65 1038 10 16.0934 0 0
6:15 pm 18:15 Cloudy 9 -12.6 2 -16.7 72 72 NE 9 15 30.71 1040 10 16.0934 0 0
6:35 pm 18:35 Cloudy 10 -12.5 3 -16.2 74 74 NNE 8 13 30.74 1041 10 16.0934 0 0
6:55 pm 18:55 Cloudy 9 -12.7 2 -16.6 73 73 NNE 8 13 30.74 1041 10 16.0934 0 0
7:15 pm 19:15 Cloudy 9 -12.7 2 -16.5 73 73 NNE 9 15 30.74 1041 10 16.0934 0 0
7:35 pm 19:35 Cloudy 9 -13 2 -16.6 75 75 NNE 10 17 30.77 1042 10 16.0934 0 0
7:55 pm 19:55 Cloudy 8 -13.3 2 -16.9 75 75 NNE 9 15 30.77 1042 10 16.0934 0 0
8:15 pm 20:15 Cloudy 8 -13.6 1 -17.5 73 73 NNE 8 13 30.77 1042 10 16.0934 0 0
8:35 pm 20:35 Cloudy 8 -13.6 1 -17.5 73 73 NNE 8 13 30.77 1042 10 16.0934 0 0
8:55 pm 20:55 Cloudy 8 -13.6 1 -17.4 73 73 ENE 5 7 30.74 1041 10 16.0934 0 0
9:15 pm 21:15 Cloudy 8 -13.5 1 -17.1 75 75 Calm 30.77 1042 10 16.0934 0 0
9:35 pm 21:35 Cloudy 8 -13.5 1 -17.1 75 75 N 5 7 30.8 1043 10 16.0934 0 0
9:55 pm 21:55 Cloudy 8 -13.3 1 -17 74 74 N 7 11 30.8 1043 10 16.0934 0 0
10:15 pm 22:15 Cloudy 8 -13.2 1 -17 73 73 N 7 11 30.8 1043 10 16.0934 0 0
10:35 pm 22:35 Cloudy 8 -13.2 2 -16.8 75 75 N 6 9 30.8 1043 10 16.0934 0 0
10:55 pm 22:55 Cloudy 8 -13.2 1 -17 73 73 N 7 11 30.8 1043 10 16.0934 0 0
11:15 pm 23:15 Cloudy 8 -13.4 1 -17.1 74 74 N 6 9 30.8 1043 10 16.0934 0 0
11:35 pm 23:35 Cloudy 8 -13.3 1 -17 74 74 N 3 6 30.8 1043 10 16.0934 0 0
11:55 pm 23:55 Cloudy 8 -13.2 1 -17 73 73 N 6 9 30.8 1043 10 16.0934 0 0

Powered by AerisWeather